Terug naar catalogus

SL-8 R/B

ActiefLEO
NORAD 4071·ROCKET BODY·🇷🇺 Russia

Gelanceerd Aug 13, 1969 vanaf Plesetsk Cosmodrome

Loading…

Volgende Passages (komende 24 uur)

TLE

VersSource: Space-Track

Epoch: Sep 14, 2026, 21:30 UTC

1 04071U 69070B   26257.89628769  .00000315  00000-0  62184-4 0  9995
2 04071  74.0472 123.8116 0014398 308.0698  51.9172 14.66786053 31891

Volg SL-8 R/B in realtime met AllMySat

Download on the App Store